SL-14 DEB, 45312

Orbit data source: Space-Track

SL-14 DEB, 45312 is space debris in LEO originally from a launch on Thu, 15 Aug 1991 UTC launched from the Plesetsk Missile And Space Complex (PKMTR). Debris objects in space refer to the collection of defunct objects orbiting the Earth. Examples of debris include non-operational satellites, rocket bodies, and fragments generated from explosions, collisions, or faulty payload assembly.

Loading next visibility...
Identifier
45312, 1991-056BA
Orbit
LEO
Country
Flag of CISCIS
Related business
Manufacturer
Unknown
Mission
Spacecraft
Bus & Motor
Unknown
Mass
Unknown
Launch date (UTC)
1991-08-15 (35 years ago)
Launch vehicle
Unknown
Launch site
Plesetsk Missile And Space Complex (PKMTR)
Object type
Payload
Rocket body
Debris
Shape & HBR
Unknown shape, 0.1 m
Radar Cross Section
Medium (>0.1 m² and <1 m²)

Expand to show TLE details & history
Last TLE update: 10 hours ago

TLE from 10 hours ago
0 SL-14 DEB
1 45312U 91056BA  26254.54254964  .00000488  00000-0  11727-2 0  9994
2 45312  82.5147  64.5942 0012962 250.1738 109.7989 13.20579978315957
Epoch: 2026-09-11T13:01Z
TLE epoch observation values (Epoch: 2026-09-11T13:01:16.288Z)
Latitude
-0.00007°
Longitude
-121.28808°
Altitude
1,188.648 km
Speed
7.258 km/s
True Right ascension
04h 18m 22s
True Declination
0° 00' 00"
Sunlit
Object was in daylight at epoch
Visualization orbit readout
Latitude
Unknown
Longitude
Unknown
Altitude
Unknown
Speed
Unknown
Apparent Right ascension
Unknown
Apparent Declination
Unknown
Sunlit
N/A
Visualization observer readout
Local Sidereal Time
15:37:36
Azimuth
Unknown
Elevation
Unknown
Doppler factor
Unknown
Orbital elements
Apogee altitude
1,189.543 km
Perigee altitude
1,169.95 km
Semi-major axis
7,557.884 km
Eccentricity
0.0013
Inclination
82.5147°
RAAN
64.5942°
Arg. of periapsis
250.1738°
True anomaly
109.93858°
Mean anomaly
109.7989°
Eccentric anomaly
109.86875°
Mean motion
3.30326 °/min
Orbital period
108.98 mins
BSTAR
0.0011727
Loading maneuver chart data...
Computing Atmospheric mass density...
Loading historical data...
Loading historical data...
Loading historical data...
Loading historical data...
Loading historical data...
Loading historical data...
Loading historical data...

Documentation

Showing up to 5 results
|